EVA67 RCTP-VTBS

Flight info

Callsign EVA67
Flight time 3h 31m
Altitude 34000
Route CHALI1A CHALI T3 MKG A1 KADLO T1 KAPLI DCT MADRU DCT SULUX DCT IGLEG DCT IKELA/K0906F340 A1 PAPRA/N0488F340 A1 UBL Y20 GRASO Y13 RUKSA EASTE1C
Aircraft B77W/H-SDE1E2E3FGHIJ2J3J4J5M1RWXY/LB1D1

Departure

Time 2026-05-08 03:21
Airport Taiwan Taoyuan International Airport (RCTP)

Arrival

Time 2026-05-08 06:52
Airport Suvarnabhumi Airport (VTBS)
Time Latitude Longitude Altitude Speed Heading
2026-05-08 02:53 25.07635 121.23498 121 ft 0 kts 320°
2026-05-08 03:06 25.07634 121.23499 121 ft 1 kts 320°
2026-05-08 03:07 25.07623 121.23510 121 ft 2 kts 320°
2026-05-08 03:07 25.07611 121.23521 121 ft 2 kts 319°
2026-05-08 03:07 25.07600 121.23531 121 ft 2 kts 319°
2026-05-08 03:07 25.07589 121.23542 121 ft 2 kts 308°
2026-05-08 03:08 25.07581 121.23556 121 ft 2 kts 291°
2026-05-08 03:08 25.07577 121.23572 121 ft 2 kts 277°
2026-05-08 03:08 25.07576 121.23589 121 ft 2 kts 262°
2026-05-08 03:08 25.07580 121.23605 121 ft 2 kts 248°
2026-05-08 03:09 25.07587 121.23618 121 ft 2 kts 233°
2026-05-08 03:09 25.07596 121.23631 121 ft 2 kts 226°
2026-05-08 03:09 25.07606 121.23643 121 ft 2 kts 228°
2026-05-08 03:09 25.07616 121.23655 121 ft 2 kts 229°
2026-05-08 03:10 25.07626 121.23668 121 ft 2 kts 229°
2026-05-08 03:10 25.07636 121.23680 121 ft 2 kts 229°
2026-05-08 03:10 25.07646 121.23693 121 ft 2 kts 229°
2026-05-08 03:10 25.07656 121.23705 121 ft 2 kts 229°
2026-05-08 03:11 25.07666 121.23718 121 ft 2 kts 229°
2026-05-08 03:11 25.07676 121.23731 121 ft 1 kts 229°
2026-05-08 03:11 25.07677 121.23732 121 ft 0 kts 229°
2026-05-08 03:11 25.07677 121.23731 121 ft 0 kts 229°
2026-05-08 03:13 25.07676 121.23731 121 ft 0 kts 229°
2026-05-08 03:13 25.07667 121.23719 121 ft 3 kts 229°
2026-05-08 03:13 25.07641 121.23689 121 ft 6 kts 217°
2026-05-08 03:14 25.07594 121.23696 121 ft 9 kts 143°
2026-05-08 03:14 25.07540 121.23748 121 ft 11 kts 137°
2026-05-08 03:14 25.07470 121.23780 121 ft 12 kts 200°
2026-05-08 03:14 25.07402 121.23708 121 ft 14 kts 229°
2026-05-08 03:15 25.07330 121.23616 121 ft 16 kts 229°
2026-05-08 03:15 25.07254 121.23518 121 ft 16 kts 229°
2026-05-08 03:15 25.07179 121.23418 121 ft 16 kts 231°
2026-05-08 03:15 25.07102 121.23319 121 ft 16 kts 227°
2026-05-08 03:16 25.07023 121.23225 121 ft 16 kts 228°
2026-05-08 03:16 25.06947 121.23128 121 ft 16 kts 229°
2026-05-08 03:16 25.06871 121.23032 121 ft 16 kts 229°
2026-05-08 03:16 25.06794 121.22935 121 ft 16 kts 229°
2026-05-08 03:17 25.06719 121.22841 121 ft 16 kts 229°
2026-05-08 03:17 25.06643 121.22746 121 ft 16 kts 229°
2026-05-08 03:17 25.06568 121.22650 121 ft 16 kts 230°
2026-05-08 03:17 25.06488 121.22548 121 ft 18 kts 229°
2026-05-08 03:18 25.06403 121.22440 121 ft 19 kts 229°
2026-05-08 03:18 25.06312 121.22324 121 ft 20 kts 229°
2026-05-08 03:18 25.06213 121.22242 121 ft 17 kts 165°
2026-05-08 03:18 25.06124 121.22317 121 ft 14 kts 134°
2026-05-08 03:19 25.06115 121.22388 121 ft 9 kts 54°
2026-05-08 03:19 25.06131 121.22411 121 ft 0 kts 49°
2026-05-08 03:19 25.06138 121.22419 121 ft 5 kts 49°
2026-05-08 03:20 25.06213 121.22513 121 ft 36 kts 49°
2026-05-08 03:20 25.06531 121.22916 122 ft 100 kts 50°
2026-05-08 03:20 25.07118 121.23662 122 ft 155 kts 49°
2026-05-08 03:20 25.07906 121.24670 325 ft 183 kts 49°
2026-05-08 03:21 25.08737 121.25728 1027 ft 185 kts 49°
2026-05-08 03:21 25.09558 121.26794 1744 ft 185 kts 49°
2026-05-08 03:21 25.10444 121.27952 1976 ft 206 kts 49°
2026-05-08 03:21 25.11443 121.29258 2166 ft 232 kts 49°
2026-05-08 03:22 25.12612 121.30535 2666 ft 243 kts 33°
2026-05-08 03:22 25.14230 121.31207 3194 ft 256 kts
2026-05-08 03:22 25.16036 121.30962 3786 ft 266 kts 338°
2026-05-08 03:22 25.17528 121.29784 4447 ft 271 kts 311°
2026-05-08 03:23 25.18725 121.28132 5087 ft 275 kts 307°
2026-05-08 03:23 25.19877 121.26453 5751 ft 278 kts 306°
2026-05-08 03:23 25.21037 121.24754 6429 ft 280 kts 305°
2026-05-08 03:23 25.22212 121.23033 7117 ft 281 kts 304°
2026-05-08 03:24 25.23147 121.21167 7707 ft 281 kts 283°
2026-05-08 03:24 25.23286 121.19038 8269 ft 279 kts 257°
2026-05-08 03:24 25.22588 121.17107 8928 ft 276 kts 233°
2026-05-08 03:24 25.21288 121.15546 9598 ft 275 kts 224°
2026-05-08 03:25 25.19903 121.14095 10200 ft 279 kts 224°
2026-05-08 03:25 25.18458 121.12590 10515 ft 293 kts 224°
2026-05-08 03:25 25.16924 121.10995 10815 ft 309 kts 224°
2026-05-08 03:25 25.15312 121.09317 11112 ft 326 kts 224°
2026-05-08 03:26 25.13643 121.07582 11449 ft 340 kts 224°
2026-05-08 03:26 25.11885 121.05754 11782 ft 355 kts 224°
2026-05-08 03:26 25.10053 121.03851 12234 ft 366 kts 224°
2026-05-08 03:26 25.08195 121.01922 12916 ft 369 kts 224°
2026-05-08 03:27 25.06329 120.99985 13657 ft 371 kts 225°
2026-05-08 03:27 25.04436 120.98023 14352 ft 375 kts 225°
2026-05-08 03:27 25.02519 120.96035 14951 ft 382 kts 225°
2026-05-08 03:27 25.00589 120.94035 15598 ft 386 kts 225°
2026-05-08 03:28 24.98610 120.91985 16336 ft 388 kts 225°
2026-05-08 03:28 24.96634 120.89938 16946 ft 393 kts 225°
2026-05-08 03:28 24.94647 120.87882 17499 ft 399 kts 225°
2026-05-08 03:28 24.92611 120.85776 18100 ft 403 kts 226°
2026-05-08 03:29 24.90563 120.83658 18680 ft 407 kts 226°
2026-05-08 03:29 24.88486 120.81511 19239 ft 411 kts 226°
2026-05-08 03:29 24.86382 120.79338 19790 ft 415 kts 226°
2026-05-08 03:29 24.84287 120.77174 20331 ft 419 kts 226°
2026-05-08 03:30 24.80019 120.72772 21435 ft 424 kts 226°
2026-05-08 03:30 24.75628 120.68245 22245 ft 437 kts 226°
2026-05-08 03:31 24.71162 120.63646 23307 ft 443 kts 226°
2026-05-08 03:31 24.66643 120.58998 24253 ft 451 kts 226°
2026-05-08 03:32 24.64326 120.56618 24774 ft 453 kts 227°
2026-05-08 03:32 24.62025 120.54253 25260 ft 457 kts 227°
2026-05-08 03:32 24.59688 120.51855 25738 ft 460 kts 227°
2026-05-08 03:32 24.57359 120.49465 26187 ft 464 kts 227°
2026-05-08 03:33 24.54974 120.47020 26651 ft 468 kts 227°
2026-05-08 03:33 24.52615 120.44602 27085 ft 471 kts 227°
2026-05-08 03:33 24.50202 120.42130 27535 ft 475 kts 227°
2026-05-08 03:33 24.47765 120.39635 27979 ft 478 kts 227°
2026-05-08 03:34 24.45334 120.37149 28395 ft 482 kts 227°
2026-05-08 03:34 24.42872 120.34631 28839 ft 485 kts 227°
2026-05-08 03:34 24.40393 120.32098 29337 ft 487 kts 227°
2026-05-08 03:34 24.37949 120.29604 29959 ft 485 kts 227°
2026-05-08 03:35 24.35488 120.27094 30756 ft 480 kts 227°
2026-05-08 03:35 24.33054 120.24615 31547 ft 473 kts 227°
2026-05-08 03:35 24.30658 120.22174 32250 ft 469 kts 227°
2026-05-08 03:35 24.28253 120.19724 32843 ft 466 kts 227°
2026-05-08 03:36 24.25856 120.17284 33447 ft 463 kts 228°
2026-05-08 03:36 24.23486 120.14871 33918 ft 463 kts 228°
2026-05-08 03:36 24.21136 120.12479 33992 ft 467 kts 228°
2026-05-08 03:37 24.16393 120.07664 33995 ft 465 kts 226°
2026-05-08 03:37 24.11160 120.03387 33998 ft 470 kts 220°
2026-05-08 03:38 24.05803 119.99252 33994 ft 471 kts 220°
2026-05-08 03:38 24.00446 119.95122 33995 ft 471 kts 220°
2026-05-08 03:39 23.95091 119.90998 33995 ft 472 kts 220°
2026-05-08 03:39 23.89730 119.86874 33992 ft 473 kts 220°
2026-05-08 03:40 23.84338 119.82730 33987 ft 472 kts 220°
2026-05-08 03:40 23.78964 119.78604 33988 ft 473 kts 220°
2026-05-08 03:41 23.73572 119.74468 33987 ft 473 kts 220°
2026-05-08 03:41 23.68194 119.70347 33988 ft 474 kts 220°
2026-05-08 03:42 23.62791 119.66202 33981 ft 473 kts 222°
2026-05-08 03:42 23.58188 119.61223 33986 ft 462 kts 238°
2026-05-08 03:43 23.54703 119.55378 33984 ft 461 kts 242°
2026-05-08 03:43 23.51284 119.49472 33983 ft 459 kts 242°
2026-05-08 03:44 23.47868 119.43581 33980 ft 461 kts 242°
2026-05-08 03:44 23.44447 119.37689 33979 ft 460 kts 242°
2026-05-08 03:45 23.41013 119.31784 33986 ft 462 kts 242°
2026-05-08 03:45 23.37581 119.25890 33987 ft 461 kts 242°
2026-05-08 03:46 23.34163 119.20026 33982 ft 461 kts 242°
2026-05-08 03:46 23.30733 119.14149 33981 ft 462 kts 242°
2026-05-08 03:47 23.27301 119.08275 33983 ft 460 kts 242°
2026-05-08 03:47 23.23855 119.02383 33976 ft 463 kts 242°
2026-05-08 03:48 23.20416 118.96512 33978 ft 462 kts 242°
2026-05-08 03:48 23.16946 118.90594 33975 ft 462 kts 242°
2026-05-08 03:49 23.13492 118.84710 33979 ft 461 kts 242°
2026-05-08 03:49 23.10062 118.78873 33973 ft 462 kts 242°
2026-05-08 03:50 23.06587 118.72967 33970 ft 462 kts 242°
2026-05-08 03:50 23.03134 118.67104 33974 ft 461 kts 242°
2026-05-08 03:51 22.99694 118.61270 33973 ft 462 kts 242°
2026-05-08 03:51 22.95863 118.55659 33972 ft 467 kts 230°
2026-05-08 03:52 22.90646 118.51343 33970 ft 479 kts 214°
2026-05-08 03:52 22.84792 118.47846 33966 ft 479 kts 213°
2026-05-08 03:53 22.78923 118.44378 33968 ft 482 kts 213°
2026-05-08 03:53 22.73027 118.40900 33968 ft 481 kts 213°
2026-05-08 03:54 22.67158 118.37442 33963 ft 479 kts 213°
2026-05-08 03:54 22.61290 118.33993 33975 ft 483 kts 213°
2026-05-08 03:55 22.55376 118.30521 33976 ft 483 kts 213°
2026-05-08 03:55 22.49444 118.27043 33973 ft 483 kts 212°
2026-05-08 03:56 22.43525 118.23576 33975 ft 483 kts 212°
2026-05-08 03:56 22.37639 118.20129 33975 ft 484 kts 212°
2026-05-08 03:57 22.31732 118.16663 33973 ft 483 kts 212°
2026-05-08 03:57 22.25800 118.13187 33976 ft 485 kts 212°
2026-05-08 03:58 22.19859 118.09717 33972 ft 485 kts 212°
2026-05-08 03:58 22.13901 118.06242 33974 ft 484 kts 212°
2026-05-08 03:59 22.07963 118.02783 33976 ft 486 kts 212°
2026-05-08 03:59 22.01990 117.99306 33964 ft 486 kts 212°
2026-05-08 04:00 21.96026 117.95838 33953 ft 487 kts 212°
2026-05-08 04:00 21.90082 117.92385 33949 ft 487 kts 212°
2026-05-08 04:01 21.84110 117.88918 33944 ft 488 kts 212°
2026-05-08 04:01 21.78104 117.85436 33948 ft 487 kts 212°
2026-05-08 04:02 21.72141 117.81982 33946 ft 487 kts 212°
2026-05-08 04:02 21.66145 117.78511 33948 ft 488 kts 212°
2026-05-08 04:03 21.60152 117.75046 33950 ft 489 kts 212°
2026-05-08 04:03 21.51166 117.69856 33945 ft 488 kts 212°
2026-05-08 04:04 21.45151 117.66386 33948 ft 491 kts 212°
2026-05-08 04:04 21.39140 117.62923 33949 ft 488 kts 212°
2026-05-08 04:05 21.33162 117.59481 33947 ft 490 kts 212°
2026-05-08 04:05 21.27161 117.55996 33940 ft 488 kts 215°
2026-05-08 04:06 21.22013 117.51410 33948 ft 480 kts 233°
2026-05-08 04:06 21.18454 117.45467 33948 ft 470 kts 250°
2026-05-08 04:07 21.16743 117.38821 33945 ft 461 kts 267°
2026-05-08 04:07 21.16493 117.31980 33956 ft 460 kts 271°
2026-05-08 04:08 21.16391 117.25166 33954 ft 459 kts 272°
2026-05-08 04:08 21.16071 117.18316 33957 ft 462 kts 263°
2026-05-08 04:09 21.14140 117.11750 33956 ft 468 kts 248°
2026-05-08 04:09 21.11285 117.05452 33954 ft 472 kts 248°
2026-05-08 04:10 21.08417 116.99187 33956 ft 472 kts 248°
2026-05-08 04:10 21.05522 116.92870 33953 ft 472 kts 248°
2026-05-08 04:11 21.02629 116.86566 33953 ft 473 kts 248°
2026-05-08 04:11 20.99752 116.80304 33954 ft 472 kts 248°
2026-05-08 04:12 20.96847 116.73986 33951 ft 472 kts 248°
2026-05-08 04:12 20.93943 116.67680 33953 ft 473 kts 248°
2026-05-08 04:13 20.91044 116.61395 33952 ft 473 kts 247°
2026-05-08 04:13 20.88145 116.55112 33944 ft 474 kts 247°
2026-05-08 04:14 20.85214 116.48769 33941 ft 474 kts 247°
2026-05-08 04:14 20.82308 116.42490 33944 ft 474 kts 247°
2026-05-08 04:15 20.79384 116.36176 33940 ft 476 kts 247°
2026-05-08 04:15 20.76446 116.29842 33942 ft 475 kts 246°
2026-05-08 04:16 20.73511 116.23521 33939 ft 475 kts 247°
2026-05-08 04:16 20.70573 116.17200 33935 ft 477 kts 246°
2026-05-08 04:17 20.67633 116.10883 33929 ft 475 kts 246°
2026-05-08 04:17 20.64677 116.04541 33928 ft 477 kts 246°
2026-05-08 04:18 20.61737 115.98238 33928 ft 477 kts 246°
2026-05-08 04:18 20.58767 115.91879 33931 ft 477 kts 246°
2026-05-08 04:19 20.55823 115.85583 33929 ft 477 kts 246°
2026-05-08 04:19 20.52860 115.79255 33930 ft 476 kts 246°
2026-05-08 04:20 20.49887 115.72910 33928 ft 477 kts 246°
2026-05-08 04:20 20.46921 115.66591 33933 ft 477 kts 246°
2026-05-08 04:21 20.43949 115.60263 33931 ft 478 kts 246°
2026-05-08 04:21 20.40990 115.53972 33938 ft 477 kts 246°
2026-05-08 04:22 20.38013 115.47649 33934 ft 478 kts 247°
2026-05-08 04:22 20.35045 115.41354 33937 ft 477 kts 247°
2026-05-08 04:23 20.32062 115.35033 33944 ft 479 kts 247°
2026-05-08 04:23 20.29071 115.28700 33948 ft 480 kts 246°
2026-05-08 04:24 20.26055 115.22324 33949 ft 480 kts 246°
2026-05-08 04:24 20.23050 115.15979 33951 ft 481 kts 246°
2026-05-08 04:25 20.20045 115.09641 33953 ft 480 kts 246°
2026-05-08 04:25 20.17047 115.03326 33953 ft 480 kts 246°
2026-05-08 04:26 20.14039 114.96995 33954 ft 479 kts 246°
2026-05-08 04:26 20.11037 114.90686 33953 ft 479 kts 246°
2026-05-08 04:27 20.08036 114.84383 33953 ft 479 kts 246°
2026-05-08 04:27 20.05031 114.78081 33954 ft 481 kts 246°
2026-05-08 04:28 20.01988 114.71706 33953 ft 481 kts 246°
2026-05-08 04:28 19.98964 114.65379 33952 ft 481 kts 246°
2026-05-08 04:29 19.95941 114.59061 33952 ft 481 kts 246°
2026-05-08 04:29 19.92910 114.52733 33954 ft 481 kts 246°
2026-05-08 04:30 19.89885 114.46424 33951 ft 480 kts 246°
2026-05-08 04:30 19.86833 114.40065 33948 ft 482 kts 246°
2026-05-08 04:31 19.83808 114.33771 33949 ft 480 kts 246°
2026-05-08 04:31 19.80755 114.27424 33949 ft 482 kts 246°
2026-05-08 04:32 19.77717 114.21117 33948 ft 482 kts 246°
2026-05-08 04:32 19.74674 114.14805 33947 ft 482 kts 246°
2026-05-08 04:33 19.71606 114.08450 33942 ft 482 kts 246°
2026-05-08 04:33 19.68543 114.02113 33943 ft 483 kts 246°
2026-05-08 04:34 19.65479 113.95778 33944 ft 483 kts 246°
2026-05-08 04:34 19.62424 113.89471 33942 ft 484 kts 245°
2026-05-08 04:35 19.59342 113.83115 33939 ft 483 kts 245°
2026-05-08 04:35 19.56267 113.76779 33941 ft 484 kts 245°
2026-05-08 04:36 19.53194 113.70456 33939 ft 485 kts 245°
2026-05-08 04:36 19.50108 113.64112 33940 ft 484 kts 245°
2026-05-08 04:37 19.47028 113.57787 33939 ft 485 kts 245°
2026-05-08 04:37 19.43918 113.51408 33935 ft 485 kts 245°
2026-05-08 04:38 19.40820 113.45061 33932 ft 487 kts 245°
2026-05-08 04:38 19.37713 113.38701 33931 ft 486 kts 245°
2026-05-08 04:39 19.34609 113.32356 33931 ft 487 kts 245°
2026-05-08 04:39 19.31500 113.26007 33931 ft 487 kts 244°
2026-05-08 04:40 19.28368 113.19617 33931 ft 487 kts 244°
2026-05-08 04:40 19.25248 113.13259 33932 ft 490 kts 244°
2026-05-08 04:41 19.22128 113.06908 33931 ft 489 kts 244°
2026-05-08 04:41 19.18985 113.00518 33931 ft 488 kts 244°
2026-05-08 04:42 19.15860 112.94171 33931 ft 488 kts 244°
2026-05-08 04:42 19.12715 112.87789 33932 ft 488 kts 244°
2026-05-08 04:43 19.09593 112.81461 33931 ft 488 kts 244°
2026-05-08 04:43 19.06437 112.75073 33933 ft 490 kts 244°
2026-05-08 04:44 19.03298 112.68722 33932 ft 489 kts 244°
2026-05-08 04:44 19.00142 112.62348 33932 ft 488 kts 244°
2026-05-08 04:45 18.97015 112.56036 33933 ft 489 kts 244°
2026-05-08 04:45 18.93851 112.49659 33933 ft 488 kts 244°
2026-05-08 04:46 18.90224 112.43614 33930 ft 491 kts 230°
2026-05-08 04:46 18.85069 112.38832 33933 ft 494 kts 218°
2026-05-08 04:47 18.79496 112.34580 33929 ft 495 kts 217°
2026-05-08 04:47 18.73899 112.30344 33929 ft 494 kts 217°
2026-05-08 04:48 18.68351 112.26079 33920 ft 495 kts 221°
2026-05-08 04:48 18.63782 112.20679 33933 ft 491 kts 237°
2026-05-08 04:49 18.59985 112.14709 33930 ft 491 kts 238°
2026-05-08 04:49 18.56200 112.08722 33930 ft 491 kts 238°
2026-05-08 04:50 18.52404 112.02724 33928 ft 491 kts 238°
2026-05-08 04:50 18.48624 111.96757 33923 ft 491 kts 238°
2026-05-08 04:51 18.44824 111.90762 33916 ft 491 kts 238°
2026-05-08 04:51 18.41048 111.84812 33916 ft 492 kts 238°
2026-05-08 04:52 18.37238 111.78814 33915 ft 492 kts 238°
2026-05-08 04:52 18.33431 111.72826 33920 ft 492 kts 238°
2026-05-08 04:53 18.29634 111.66860 33917 ft 491 kts 238°
2026-05-08 04:53 18.25823 111.60877 33917 ft 491 kts 238°
2026-05-08 04:54 18.22040 111.54944 33915 ft 492 kts 238°
2026-05-08 04:54 18.18225 111.48965 33915 ft 492 kts 238°
2026-05-08 04:55 18.14420 111.43007 33917 ft 492 kts 238°
2026-05-08 04:55 18.10594 111.37023 33913 ft 492 kts 238°
2026-05-08 04:56 18.06791 111.31081 33916 ft 492 kts 238°
2026-05-08 04:56 18.02964 111.25105 33927 ft 491 kts 237°
2026-05-08 04:57 17.99170 111.19187 33936 ft 491 kts 237°
2026-05-08 04:57 17.95340 111.13218 33933 ft 491 kts 238°
2026-05-08 04:58 17.91500 111.07237 33928 ft 492 kts 237°
2026-05-08 04:58 17.87691 111.01312 33929 ft 492 kts 238°
2026-05-08 04:59 17.83851 110.95344 33925 ft 492 kts 238°
2026-05-08 04:59 17.80030 110.89410 33928 ft 492 kts 238°
2026-05-08 05:00 17.76197 110.83464 33928 ft 492 kts 238°
2026-05-08 05:00 17.72341 110.77487 33927 ft 493 kts 238°
2026-05-08 05:01 17.68503 110.71542 33928 ft 493 kts 238°
2026-05-08 05:01 17.64670 110.65611 33928 ft 494 kts 238°
2026-05-08 05:02 17.60797 110.59624 33931 ft 494 kts 238°
2026-05-08 05:02 17.56964 110.53705 33931 ft 494 kts 238°
2026-05-08 05:03 17.53083 110.47715 33926 ft 494 kts 238°
2026-05-08 05:03 17.49229 110.41773 33929 ft 494 kts 238°
2026-05-08 05:04 17.45368 110.35825 33930 ft 494 kts 238°
2026-05-08 05:04 17.41505 110.29880 33929 ft 494 kts 238°
2026-05-08 05:05 17.37686 110.23924 33929 ft 495 kts 238°
2026-05-08 05:05 17.33863 110.17946 33930 ft 495 kts 238°
2026-05-08 05:06 17.30022 110.11947 33930 ft 495 kts 238°
2026-05-08 05:06 17.26217 110.06013 33927 ft 494 kts 238°
2026-05-08 05:07 17.22371 110.00021 33927 ft 496 kts 238°
2026-05-08 05:07 17.18523 109.94030 33926 ft 496 kts 238°
2026-05-08 05:08 17.14689 109.88068 33927 ft 496 kts 238°
2026-05-08 05:08 17.10855 109.82112 33918 ft 494 kts 238°
2026-05-08 05:09 17.07008 109.76139 33915 ft 494 kts 238°
2026-05-08 05:09 17.03169 109.70186 33915 ft 494 kts 238°
2026-05-08 05:10 16.97427 109.61289 33913 ft 494 kts 238°
2026-05-08 05:11 16.93581 109.55335 33913 ft 496 kts 238°
2026-05-08 05:11 16.89728 109.49377 33913 ft 495 kts 238°
2026-05-08 05:12 16.85867 109.43412 33907 ft 494 kts 238°
2026-05-08 05:12 16.82028 109.37483 33908 ft 494 kts 238°
2026-05-08 05:13 16.78199 109.31565 33909 ft 492 kts 238°
2026-05-08 05:13 16.74375 109.25658 33909 ft 493 kts 238°
2026-05-08 05:14 16.70518 109.19705 33908 ft 494 kts 238°
2026-05-08 05:14 16.66679 109.13788 33908 ft 493 kts 238°
2026-05-08 05:15 16.62849 109.07886 33909 ft 493 kts 238°
2026-05-08 05:15 16.59007 109.01974 33909 ft 492 kts 238°
2026-05-08 05:16 16.55156 108.96059 33909 ft 492 kts 237°
2026-05-08 05:16 16.51270 108.90222 33910 ft 492 kts 237°
2026-05-08 05:17 16.47368 108.84373 33910 ft 492 kts 237°
2026-05-08 05:17 16.43461 108.78517 33910 ft 493 kts 237°
2026-05-08 05:18 16.39561 108.72675 33911 ft 494 kts 237°
2026-05-08 05:18 16.35630 108.66790 33910 ft 493 kts 237°
2026-05-08 05:19 16.31794 108.60886 33910 ft 493 kts 238°
2026-05-08 05:19 16.27988 108.54966 33908 ft 493 kts 238°
2026-05-08 05:20 16.24189 108.49068 33904 ft 492 kts 238°
2026-05-08 05:20 16.20382 108.43168 33906 ft 492 kts 239°
2026-05-08 05:21 16.16550 108.37235 33910 ft 493 kts 239°
2026-05-08 05:21 16.12728 108.31325 33914 ft 492 kts 238°
2026-05-08 05:22 16.08917 108.25439 33909 ft 491 kts 238°
2026-05-08 05:22 16.05380 108.19347 33929 ft 487 kts 249°
2026-05-08 05:23 16.03292 108.12734 33963 ft 486 kts 256°
2026-05-08 05:23 16.01411 108.06010 34012 ft 485 kts 256°
2026-05-08 05:24 15.99518 107.99255 34063 ft 486 kts 256°
2026-05-08 05:24 15.97641 107.92564 34053 ft 485 kts 256°
2026-05-08 05:25 15.95754 107.85805 34034 ft 486 kts 257°
2026-05-08 05:25 15.93927 107.79082 34017 ft 486 kts 257°
2026-05-08 05:26 15.92092 107.72344 34003 ft 486 kts 257°
2026-05-08 05:26 15.90250 107.65592 34014 ft 488 kts 257°
2026-05-08 05:27 15.88320 107.58814 34015 ft 488 kts 256°
2026-05-08 05:27 15.86379 107.52064 34020 ft 488 kts 256°
2026-05-08 05:28 15.84430 107.45283 34031 ft 489 kts 256°
2026-05-08 05:28 15.82491 107.38541 34052 ft 489 kts 256°
2026-05-08 05:29 15.80543 107.31774 34070 ft 489 kts 256°
2026-05-08 05:29 15.78609 107.25064 34091 ft 490 kts 255°
2026-05-08 05:30 15.76650 107.18274 34095 ft 490 kts 255°
2026-05-08 05:30 15.75073 107.11404 34090 ft 488 kts 260°
2026-05-08 05:31 15.73642 107.04572 34090 ft 487 kts 260°
2026-05-08 05:31 15.72172 106.97663 34079 ft 489 kts 259°
2026-05-08 05:32 15.70696 106.90789 34045 ft 490 kts 259°
2026-05-08 05:32 15.69208 106.83903 34000 ft 488 kts 259°
2026-05-08 05:33 15.67724 106.77058 33952 ft 488 kts 259°
2026-05-08 05:33 15.66232 106.70202 33929 ft 487 kts 259°
2026-05-08 05:34 15.64751 106.63403 33926 ft 487 kts 259°
2026-05-08 05:34 15.63251 106.56533 33940 ft 488 kts 259°
2026-05-08 05:35 15.61751 106.49678 33952 ft 489 kts 259°
2026-05-08 05:35 15.60253 106.42839 33957 ft 489 kts 259°
2026-05-08 05:36 15.58741 106.35949 33956 ft 489 kts 259°
2026-05-08 05:36 15.57237 106.29108 33946 ft 489 kts 259°
2026-05-08 05:37 15.55731 106.22268 33948 ft 488 kts 259°
2026-05-08 05:37 15.54214 106.15387 33941 ft 490 kts 259°
2026-05-08 05:38 15.52689 106.08484 33934 ft 490 kts 259°
2026-05-08 05:38 15.51172 106.01623 33924 ft 490 kts 259°
2026-05-08 05:39 15.49643 105.94722 33918 ft 490 kts 259°
2026-05-08 05:39 15.48104 105.87783 33905 ft 490 kts 259°
2026-05-08 05:40 15.46573 105.80898 33892 ft 489 kts 259°
2026-05-08 05:40 15.45031 105.73968 33875 ft 489 kts 259°
2026-05-08 05:41 15.43494 105.67071 33881 ft 489 kts 258°
2026-05-08 05:41 15.41954 105.60175 33882 ft 489 kts 258°
2026-05-08 05:42 15.40365 105.53336 33878 ft 490 kts 258°
2026-05-08 05:42 15.38734 105.46443 33880 ft 490 kts 257°
2026-05-08 05:43 15.37110 105.39577 33873 ft 490 kts 258°
2026-05-08 05:43 15.35493 105.32745 33868 ft 489 kts 257°
2026-05-08 05:44 15.33864 105.25867 33861 ft 489 kts 257°
2026-05-08 05:44 15.32246 105.19045 33858 ft 489 kts 257°
2026-05-08 05:45 15.30631 105.12241 33866 ft 489 kts 257°
2026-05-08 05:45 15.28996 105.05366 33869 ft 488 kts 257°
2026-05-08 05:46 15.27374 104.98555 33872 ft 489 kts 257°
2026-05-08 05:46 15.25732 104.91669 33875 ft 489 kts 257°
2026-05-08 05:47 15.24374 104.84768 33882 ft 488 kts 265°
2026-05-08 05:47 15.23786 104.77754 33878 ft 487 kts 266°
2026-05-08 05:48 15.23216 104.70747 33872 ft 487 kts 266°
2026-05-08 05:48 15.22643 104.63746 33874 ft 487 kts 266°
2026-05-08 05:49 15.22067 104.56754 33871 ft 488 kts 266°
2026-05-08 05:49 15.21486 104.49747 33872 ft 488 kts 266°
2026-05-08 05:50 15.20906 104.42773 33887 ft 489 kts 266°
2026-05-08 05:50 15.20321 104.35770 33883 ft 487 kts 266°
2026-05-08 05:51 15.19737 104.28812 33885 ft 487 kts 265°
2026-05-08 05:51 15.19147 104.21806 33883 ft 487 kts 265°
2026-05-08 05:52 15.18551 104.14761 33883 ft 488 kts 265°
2026-05-08 05:52 15.17961 104.07799 33887 ft 488 kts 265°
2026-05-08 05:53 15.17359 104.00738 33883 ft 489 kts 265°
2026-05-08 05:53 15.16762 103.93758 33891 ft 490 kts 265°
2026-05-08 05:54 15.16161 103.86751 33881 ft 489 kts 265°
2026-05-08 05:54 15.15486 103.79726 33871 ft 489 kts 260°
2026-05-08 05:55 15.13610 103.72949 33864 ft 492 kts 252°
2026-05-08 05:55 15.11447 103.66253 33871 ft 492 kts 252°
2026-05-08 05:56 15.09274 103.59537 33868 ft 492 kts 252°
2026-05-08 05:56 15.07070 103.52728 33876 ft 493 kts 252°
2026-05-08 05:57 15.04891 103.46006 33872 ft 492 kts 252°
2026-05-08 05:57 15.02714 103.39295 33880 ft 491 kts 252°
2026-05-08 05:58 15.00528 103.32564 33876 ft 492 kts 252°
2026-05-08 05:58 14.98316 103.25759 33874 ft 493 kts 252°
2026-05-08 05:59 14.96119 103.19011 33876 ft 495 kts 252°
2026-05-08 05:59 14.93921 103.12266 33870 ft 496 kts 252°
2026-05-08 06:00 14.91716 103.05506 33871 ft 495 kts 252°
2026-05-08 06:00 14.89505 102.98737 33870 ft 494 kts 252°
2026-05-08 06:01 14.87303 102.91997 33866 ft 493 kts 252°
2026-05-08 06:01 14.85154 102.85190 33865 ft 497 kts 253°
2026-05-08 06:02 14.83071 102.78354 33867 ft 495 kts 253°
2026-05-08 06:02 14.80996 102.71570 33868 ft 494 kts 253°
2026-05-08 06:03 14.78926 102.64818 33871 ft 495 kts 253°
2026-05-08 06:03 14.76837 102.58017 33876 ft 495 kts 253°
2026-05-08 06:04 14.74757 102.51257 33878 ft 495 kts 253°
2026-05-08 06:04 14.72668 102.44477 33879 ft 495 kts 253°
2026-05-08 06:05 14.70570 102.37677 33887 ft 496 kts 253°
2026-05-08 06:05 14.68460 102.30849 33881 ft 495 kts 253°
2026-05-08 06:06 14.66353 102.24035 33882 ft 497 kts 252°
2026-05-08 06:06 14.64247 102.17231 33578 ft 490 kts 252°
2026-05-08 06:06 14.63200 102.13854 32520 ft 496 kts 252°
2026-05-08 06:07 14.62154 102.10480 31680 ft 498 kts 252°
2026-05-08 06:07 14.61094 102.07063 30892 ft 500 kts 253°
2026-05-08 06:07 14.60044 102.03680 30267 ft 497 kts 253°
2026-05-08 06:07 14.58995 102.00304 29819 ft 491 kts 253°
2026-05-08 06:08 14.57968 101.96999 29326 ft 487 kts 253°
2026-05-08 06:08 14.56931 101.93666 28784 ft 483 kts 253°
2026-05-08 06:08 14.55895 101.90404 28255 ft 479 kts 250°
2026-05-08 06:08 14.54638 101.87220 27735 ft 476 kts 248°
2026-05-08 06:09 14.53354 101.84094 27197 ft 473 kts 248°
2026-05-08 06:09 14.52086 101.80995 26664 ft 470 kts 248°
2026-05-08 06:09 14.50829 101.77906 26128 ft 467 kts 248°
2026-05-08 06:09 14.49581 101.74830 25594 ft 464 kts 248°
2026-05-08 06:10 14.48351 101.71789 25062 ft 462 kts 247°
2026-05-08 06:10 14.47123 101.68744 24523 ft 459 kts 247°
2026-05-08 06:10 14.45897 101.65702 23991 ft 456 kts 247°
2026-05-08 06:10 14.44695 101.62717 23458 ft 453 kts 247°
2026-05-08 06:11 14.43488 101.59719 22921 ft 451 kts 247°
2026-05-08 06:11 14.42299 101.56763 22389 ft 448 kts 247°
2026-05-08 06:11 14.41100 101.53785 21856 ft 445 kts 246°
2026-05-08 06:11 14.39930 101.50877 21336 ft 443 kts 246°
2026-05-08 06:12 14.38752 101.47948 20799 ft 441 kts 246°
2026-05-08 06:12 14.37576 101.45027 20253 ft 439 kts 246°
2026-05-08 06:12 14.36414 101.42141 19714 ft 437 kts 246°
2026-05-08 06:12 14.35248 101.39246 19169 ft 435 kts 246°
2026-05-08 06:13 14.34094 101.36381 18624 ft 433 kts 246°
2026-05-08 06:13 14.32940 101.33518 18110 ft 430 kts 246°
2026-05-08 06:13 14.31673 101.30752 17947 ft 415 kts 238°
2026-05-08 06:13 14.30045 101.28371 17809 ft 399 kts 227°
2026-05-08 06:14 14.28110 101.26380 17499 ft 390 kts 219°
2026-05-08 06:14 14.26059 101.24564 17129 ft 385 kts 219°
2026-05-08 06:14 14.24012 101.22782 16792 ft 380 kts 219°
2026-05-08 06:14 14.21991 101.21034 16435 ft 375 kts 218°
2026-05-08 06:15 14.19994 101.19315 16127 ft 369 kts 218°
2026-05-08 06:15 14.18031 101.17629 15812 ft 364 kts 218°
2026-05-08 06:15 14.16104 101.15980 15492 ft 359 kts 218°
2026-05-08 06:15 14.14192 101.14346 15189 ft 354 kts 218°
2026-05-08 06:16 14.12322 101.12753 14916 ft 349 kts 218°
2026-05-08 06:16 14.10446 101.11154 14597 ft 344 kts 218°
2026-05-08 06:16 14.08630 101.09609 14295 ft 340 kts 217°
2026-05-08 06:16 14.06811 101.08083 14008 ft 334 kts 213°
2026-05-08 06:17 14.02624 101.06333 13406 ft 320 kts 193°
2026-05-08 06:17 14.00485 101.05741 13106 ft 316 kts 193°
2026-05-08 06:17 13.98365 101.05164 12791 ft 313 kts 193°
2026-05-08 06:18 13.96255 101.04587 12478 ft 309 kts 193°
2026-05-08 06:18 13.94198 101.04023 12197 ft 308 kts 193°
2026-05-08 06:18 13.92094 101.03446 11995 ft 309 kts 193°
2026-05-08 06:18 13.90784 101.03087 11845 ft 310 kts 193°
2026-05-08 06:19 13.88882 101.02565 11605 ft 310 kts 193°
2026-05-08 06:19 13.86791 101.01991 11311 ft 308 kts 193°
2026-05-08 06:19 13.84747 101.01363 10992 ft 307 kts 204°
2026-05-08 06:19 13.83012 101.00086 10703 ft 308 kts 229°
2026-05-08 06:20 13.81943 100.98194 10400 ft 309 kts 254°
2026-05-08 06:20 13.81720 100.96031 10082 ft 303 kts 277°
2026-05-08 06:20 13.82073 100.93907 9741 ft 300 kts 284°
2026-05-08 06:20 13.82809 100.91943 9340 ft 295 kts 306°
2026-05-08 06:21 13.84259 100.90492 9072 ft 286 kts 333°
2026-05-08 06:21 13.86097 100.89864 8782 ft 277 kts 358°
2026-05-08 06:21 13.87993 100.90014 8527 ft 272 kts 12°
2026-05-08 06:21 13.89850 100.90437 8249 ft 272 kts 15°
2026-05-08 06:22 13.91690 100.90924 7988 ft 270 kts 16°
2026-05-08 06:22 13.93527 100.91427 7709 ft 269 kts 17°
2026-05-08 06:22 13.95326 100.91922 7458 ft 268 kts 17°
2026-05-08 06:22 13.97147 100.92423 7184 ft 269 kts 17°
2026-05-08 06:23 13.98941 100.92915 6917 ft 267 kts 17°
2026-05-08 06:23 14.00751 100.93407 6658 ft 265 kts 16°
2026-05-08 06:23 14.02514 100.93865 6517 ft 257 kts 16°
2026-05-08 06:23 14.04250 100.94318 6491 ft 254 kts 16°
2026-05-08 06:24 14.05745 100.94710 6489 ft 251 kts 16°
2026-05-08 06:24 14.06752 100.94974 6490 ft 243 kts 16°
2026-05-08 06:24 14.08393 100.95311 6470 ft 239 kts
2026-05-08 06:24 14.10021 100.94924 6434 ft 242 kts 333°
2026-05-08 06:25 14.11269 100.93760 6408 ft 246 kts 302°
2026-05-08 06:25 14.11801 100.92094 6387 ft 249 kts 272°
2026-05-08 06:25 14.11455 100.90365 6371 ft 248 kts 241°
2026-05-08 06:25 14.10317 100.89049 6361 ft 247 kts 210°
2026-05-08 06:26 14.08824 100.88202 6373 ft 247 kts 207°
2026-05-08 06:26 14.07300 100.87337 6338 ft 247 kts 206°
2026-05-08 06:26 14.05758 100.86565 6139 ft 247 kts 202°
2026-05-08 06:26 14.04163 100.85867 5849 ft 244 kts 200°
2026-05-08 06:27 14.02589 100.85241 5711 ft 239 kts 198°
2026-05-08 06:27 14.01002 100.84668 5644 ft 242 kts 197°
2026-05-08 06:27 13.99368 100.84139 5336 ft 246 kts 195°
2026-05-08 06:27 13.97708 100.83641 4966 ft 245 kts 194°
2026-05-08 06:28 13.96069 100.83170 4643 ft 244 kts 194°
2026-05-08 06:28 13.94439 100.82717 4339 ft 242 kts 193°
2026-05-08 06:28 13.92797 100.82270 4065 ft 238 kts 193°
2026-05-08 06:28 13.91249 100.81856 4014 ft 223 kts 193°
2026-05-08 06:29 13.89766 100.81465 3868 ft 219 kts 193°
2026-05-08 06:29 13.88292 100.81086 3612 ft 216 kts 193°
2026-05-08 06:29 13.86833 100.80713 3351 ft 213 kts 193°
2026-05-08 06:29 13.85398 100.80342 3092 ft 210 kts 193°
2026-05-08 06:30 13.83990 100.79976 2839 ft 197 kts 193°
2026-05-08 06:30 13.82682 100.79634 2598 ft 192 kts 193°
2026-05-08 06:30 13.81414 100.79301 2364 ft 183 kts 193°
2026-05-08 06:30 13.80195 100.78982 2137 ft 174 kts 193°
2026-05-08 06:31 13.79050 100.78683 1944 ft 168 kts 193°
2026-05-08 06:31 13.77904 100.78382 1724 ft 166 kts 193°
2026-05-08 06:31 13.76791 100.78091 1511 ft 164 kts 193°
2026-05-08 06:31 13.75682 100.77801 1296 ft 163 kts 194°
2026-05-08 06:32 13.74580 100.77512 1083 ft 161 kts 194°
2026-05-08 06:32 13.73491 100.77227 874 ft 161 kts 193°
2026-05-08 06:32 13.72399 100.76948 660 ft 161 kts 193°
2026-05-08 06:32 13.71314 100.76659 453 ft 159 kts 194°
2026-05-08 06:33 13.70235 100.76378 243 ft 160 kts 193°
2026-05-08 06:33 13.69172 100.76106 63 ft 156 kts 195°
2026-05-08 06:33 13.68183 100.75840 19 ft 131 kts 196°
2026-05-08 06:33 13.67306 100.75592 91 ft 138 kts 193°
2026-05-08 06:34 13.66325 100.75336 348 ft 153 kts 194°
2026-05-08 06:34 13.65260 100.75040 840 ft 162 kts 195°
2026-05-08 06:34 13.64175 100.74734 1499 ft 163 kts 195°
2026-05-08 06:34 13.63041 100.74416 2002 ft 176 kts 194°
2026-05-08 06:35 13.61785 100.74077 2535 ft 194 kts 188°
2026-05-08 06:35 13.60391 100.74123 3266 ft 208 kts 164°
2026-05-08 06:35 13.59107 100.74758 3839 ft 220 kts 141°
2026-05-08 06:35 13.58007 100.75979 3985 ft 244 kts 120°
2026-05-08 06:36 13.57353 100.77648 3993 ft 262 kts 99°
2026-05-08 06:36 13.57387 100.79529 3989 ft 265 kts 76°
2026-05-08 06:36 13.58154 100.81231 3986 ft 259 kts 52°
2026-05-08 06:36 13.59540 100.82378 3986 ft 257 kts 24°
2026-05-08 06:37 13.61272 100.82938 4004 ft 260 kts 16°
2026-05-08 06:37 13.63057 100.83401 4003 ft 259 kts 15°
2026-05-08 06:37 13.64791 100.83843 4008 ft 259 kts 15°
2026-05-08 06:37 13.66570 100.84296 4003 ft 259 kts 15°
2026-05-08 06:38 13.68332 100.84747 4004 ft 259 kts 15°
2026-05-08 06:38 13.70126 100.85206 4005 ft 259 kts 15°
2026-05-08 06:38 13.71886 100.85653 4004 ft 260 kts 15°
2026-05-08 06:38 13.73644 100.86098 4003 ft 260 kts 15°
2026-05-08 06:39 13.75434 100.86551 4005 ft 260 kts 15°
2026-05-08 06:39 13.77199 100.86999 4006 ft 260 kts 15°
2026-05-08 06:39 13.78976 100.87450 4006 ft 260 kts 15°
2026-05-08 06:39 13.80736 100.87897 4007 ft 260 kts 15°
2026-05-08 06:40 13.82498 100.88347 4007 ft 259 kts 15°
2026-05-08 06:40 13.84249 100.88793 4010 ft 256 kts 15°
2026-05-08 06:40 13.85945 100.89225 4020 ft 243 kts 15°
2026-05-08 06:40 13.87569 100.89641 4001 ft 233 kts 15°
2026-05-08 06:41 13.89135 100.90041 3993 ft 230 kts 15°
2026-05-08 06:41 13.90701 100.90440 3999 ft 229 kts 15°
2026-05-08 06:41 13.92274 100.90844 3996 ft 229 kts 15°
2026-05-08 06:41 13.93830 100.91241 3996 ft 229 kts 15°
2026-05-08 06:42 13.95380 100.91638 3999 ft 229 kts 15°
2026-05-08 06:42 13.96925 100.92035 3994 ft 229 kts 15°
2026-05-08 06:42 13.98496 100.92437 3993 ft 230 kts 15°
2026-05-08 06:42 14.00059 100.92833 3994 ft 231 kts 15°
2026-05-08 06:43 14.01631 100.93236 3992 ft 231 kts 15°
2026-05-08 06:43 14.03210 100.93536 3963 ft 232 kts 360°
2026-05-08 06:43 14.04761 100.93087 3888 ft 235 kts 328°
2026-05-08 06:43 14.05856 100.91880 3816 ft 236 kts 296°
2026-05-08 06:44 14.06192 100.90207 3655 ft 240 kts 263°
2026-05-08 06:44 14.05774 100.88600 3794 ft 239 kts 251°
2026-05-08 06:44 14.05180 100.87006 3781 ft 236 kts 244°
2026-05-08 06:44 14.04149 100.85712 3765 ft 235 kts 212°
2026-05-08 06:45 14.02655 100.85043 3782 ft 235 kts 197°
2026-05-08 06:45 14.01070 100.84540 3795 ft 234 kts 195°
2026-05-08 06:45 13.99507 100.84079 3786 ft 233 kts 194°
2026-05-08 06:45 13.97929 100.83635 3779 ft 232 kts 194°
2026-05-08 06:46 13.96358 100.83206 3785 ft 232 kts 193°
2026-05-08 06:46 13.94773 100.82783 3788 ft 233 kts 193°
2026-05-08 06:46 13.93202 100.82369 3797 ft 233 kts 193°
2026-05-08 06:46 13.91606 100.81953 3796 ft 234 kts 193°
2026-05-08 06:47 13.90029 100.81545 3788 ft 234 kts 193°
2026-05-08 06:47 13.88419 100.81130 3634 ft 239 kts 193°
2026-05-08 06:47 13.86817 100.80714 3346 ft 237 kts 193°
2026-05-08 06:47 13.85209 100.80295 3053 ft 235 kts 193°
2026-05-08 06:48 13.83634 100.79884 2765 ft 230 kts 193°
2026-05-08 06:48 13.82134 100.79491 2497 ft 214 kts 193°
2026-05-08 06:48 13.80728 100.79122 2236 ft 202 kts 193°
2026-05-08 06:48 13.79397 100.78773 1992 ft 190 kts 193°
2026-05-08 06:49 13.78136 100.78444 1756 ft 180 kts 193°
2026-05-08 06:49 13.76933 100.78129 1540 ft 168 kts 194°
2026-05-08 06:49 13.75811 100.77835 1333 ft 163 kts 193°
2026-05-08 06:49 13.74714 100.77548 1119 ft 161 kts 194°
2026-05-08 06:50 13.73626 100.77263 904 ft 160 kts 194°
2026-05-08 06:50 13.72536 100.76975 671 ft 160 kts 193°
2026-05-08 06:50 13.71460 100.76700 451 ft 158 kts 193°
2026-05-08 06:50 13.70390 100.76426 269 ft 158 kts 195°
2026-05-08 06:51 13.69326 100.76150 85 ft 157 kts 196°
2026-05-08 06:51 13.68295 100.75877 15 ft 138 kts 196°
2026-05-08 06:51 13.67503 100.75663 14 ft 95 kts 194°
2026-05-08 06:51 13.67009 100.75532 14 ft 50 kts 196°
2026-05-08 06:52 13.66786 100.75462 14 ft 22 kts 214°
2026-05-08 06:52 13.66688 100.75346 14 ft 20 kts 251°
2026-05-08 06:52 13.66776 100.75296 14 ft 18 kts 12°
2026-05-08 06:52 13.66899 100.75328 14 ft 18 kts 14°
2026-05-08 06:53 13.67022 100.75359 14 ft 17 kts 13°
2026-05-08 06:53 13.67140 100.75391 14 ft 17 kts 14°
2026-05-08 06:53 13.67257 100.75422 14 ft 17 kts 14°
2026-05-08 06:53 13.67374 100.75452 14 ft 17 kts 14°
2026-05-08 06:54 13.67499 100.75485 14 ft 18 kts 14°
2026-05-08 06:54 13.67629 100.75519 14 ft 19 kts 14°
2026-05-08 06:54 13.67765 100.75555 14 ft 20 kts 15°
2026-05-08 06:54 13.67906 100.75592 14 ft 21 kts 14°
2026-05-08 06:55 13.68051 100.75630 14 ft 21 kts 14°
2026-05-08 06:55 13.68201 100.75669 14 ft 22 kts 14°
2026-05-08 06:55 13.68355 100.75709 14 ft 23 kts 14°
2026-05-08 06:55 13.68451 100.75687 14 ft 14 kts 291°
2026-05-08 06:56 13.68479 100.75582 14 ft 15 kts 284°
2026-05-08 06:56 13.68507 100.75468 14 ft 16 kts 285°
2026-05-08 06:56 13.68538 100.75346 14 ft 17 kts 284°
2026-05-08 06:56 13.68568 100.75221 14 ft 18 kts 284°
2026-05-08 06:57 13.68601 100.75092 14 ft 19 kts 284°
2026-05-08 06:57 13.68634 100.74957 14 ft 19 kts 284°
2026-05-08 06:57 13.68668 100.74820 14 ft 20 kts 284°
2026-05-08 06:57 13.68711 100.74725 14 ft 13 kts 333°
2026-05-08 06:58 13.68808 100.74734 14 ft 15 kts 14°
2026-05-08 06:58 13.68906 100.74759 14 ft 13 kts 14°
2026-05-08 06:58 13.68944 100.74747 14 ft 5 kts 284°
2026-05-08 06:58 13.68953 100.74709 14 ft 5 kts 284°
2026-05-08 06:59 13.68957 100.74693 14 ft 0 kts 284°